GSAT0208 (GALILEO 11)

Last updated on July 13, 2020, 5:28 a.m. UTC

1 41175U 15079B   20194.00526228  .00000048  00000-0  00000-0 0  9993
2 41175  54.9981 160.8030 0005092 306.5028  53.4164  1.70473338 28430
UTC
Height (km)
Latitude
Longitude
Inclination
Orbital Period
UTC large
Height (km)
Speed (km/s)
/
Latitude / Longitude
Inclination (degrees)
Orbital Period (minutes)
Azimuth
Elevation
Range (km)
Doppler Factor
iOS Compass Heading
iOS Angle

Next 30 passes for location: Hong Kong

Rise time Rise Azimuth (degrees) Set time Set Azimuth (degrees) Duration Max altitude (degrees)

No matching passes for this satellites